Location: Bothwell
(42.3833°S, 147.0000°E)
Time: 15:25:07
(UTC+11:00)

CUBESAT XI-V - Visible Passes

Search period start: 22 March 2023 00:00
Search period end: 01 April 2023 00:00
Orbit: 665 x 687 km, 98.1° (Epoch: 21 March)

Date Brightness Start Highest point End Pass type
(mag) Time Alt. Az. Time Alt. Az. Time Alt. Az.
22 Mar ? 02:59:13 10° SE 02:59:15 10° SE 02:59:15 10° SE visible
22 Mar ? 04:36:01 10° S 04:37:35 19° SSW 04:37:35 19° SSW visible
23 Mar ? 03:33:13 10° SSE 03:34:10 16° SSE 03:34:10 16° SSE visible
23 Mar ? 05:11:32 10° SSW 05:12:30 13° SSW 05:12:30 13° SSW visible
24 Mar ? 04:07:46 10° S 04:09:05 19° S 04:09:05 19° S visible
25 Mar ? 04:42:46 10° S 04:43:59 16° SSW 04:43:59 16° SSW visible
26 Mar ? 03:39:48 10° SSE 03:40:32 14° SSE 03:40:32 14° SSE visible
26 Mar ? 05:18:29 10° SSW 05:18:52 11° SSW 05:18:52 11° SSW visible
27 Mar ? 04:14:26 10° S 04:15:25 16° S 04:15:25 16° S visible
28 Mar ? 04:49:30 10° S 04:50:19 14° SSW 04:50:19 14° SSW visible
29 Mar ? 03:46:21 10° SSE 03:46:52 13° SSE 03:46:52 13° SSE visible
30 Mar ? 04:21:03 10° S 04:21:44 14° S 04:21:44 14° S visible
31 Mar ? 04:56:13 10° SSW 04:56:36 12° SSW 04:56:36 12° SSW visible
